TimeICT,TemperatureF,Dew PointF,Humidity,Sea Level PressureIn,VisibilityMPH,Wind Direction,Wind SpeedMPH,Gust SpeedMPH,PrecipitationIn,Events,Conditions,WindDirDegrees,DateUTC
12:00 AM,84.2,77.0,79,29.80,6.2,SSW,8.1,-,N/A,,Scattered Clouds,210,2013-03-17 17:00:00
12:30 AM,84.2,77.0,79,29.80,6.2,SSW,9.2,-,N/A,,Scattered Clouds,210,2013-03-17 17:30:00
1:00 AM,84,74,65,29.80,6,SSW,9.2,,,,Scattered Clouds,210,2013-03-17 18:00:00
1:00 AM,84.2,77.0,79,29.80,6.2,SSW,9.2,-,N/A,,Scattered Clouds,210,2013-03-17 18:00:00
1:30 AM,84.2,77.0,79,29.77,6.2,SSW,10.4,-,N/A,,Scattered Clouds,210,2013-03-17 18:30:00
2:00 AM,84.2,77.0,79,29.77,6.2,SSW,8.1,-,N/A,,Scattered Clouds,210,2013-03-17 19:00:00
2:30 AM,84.2,77.0,79,29.77,6.2,South,6.9,-,N/A,,Scattered Clouds,190,2013-03-17 19:30:00
3:00 AM,84.2,77.0,79,29.77,6.2,South,5.8,-,N/A,,Scattered Clouds,180,2013-03-17 20:00:00
3:30 AM,84.2,77.0,79,29.77,6.2,South,5.8,-,N/A,,Scattered Clouds,180,2013-03-17 20:30:00
4:00 AM,84.2,77.0,79,29.77,6.2,SSW,5.8,-,N/A,,Mostly Cloudy,200,2013-03-17 21:00:00
4:30 AM,84.2,77.0,79,29.77,6.2,SSW,5.8,-,N/A,,Mostly Cloudy,200,2013-03-17 21:30:00
5:00 AM,84.2,77.0,79,29.77,6.2,SSW,5.8,-,N/A,,Mostly Cloudy,200,2013-03-17 22:00:00
5:30 AM,84.2,77.0,79,29.77,6.2,SSW,9.2,-,N/A,,Mostly Cloudy,200,2013-03-17 22:30:00
6:00 AM,84.2,77.0,79,29.77,6.2,SSW,9.2,-,N/A,,Mostly Cloudy,200,2013-03-17 23:00:00
6:30 AM,84.2,77.0,79,29.80,6.2,SSW,5.8,-,N/A,,Mostly Cloudy,200,2013-03-17 23:30:00
7:00 AM,84,77,75,29.82,6,SSW,6.9,,,,Scattered Clouds,210,2013-03-18 00:00:00
7:00 AM,84.2,77.0,79,29.80,6.2,SSW,5.8,-,N/A,,Mostly Cloudy,210,2013-03-18 00:00:00
7:30 AM,84.2,77.0,79,29.80,6.2,SSW,5.8,-,N/A,,Mostly Cloudy,200,2013-03-18 00:30:00
8:00 AM,86.0,77.0,74,29.83,6.2,SSW,5.8,-,N/A,,Mostly Cloudy,210,2013-03-18 01:00:00
8:30 AM,86.0,73.4,66,29.83,6.2,South,11.5,-,N/A,,Mostly Cloudy,190,2013-03-18 01:30:00
9:00 AM,87.8,75.2,66,29.83,6.2,South,11.5,-,N/A,,Mostly Cloudy,190,2013-03-18 02:00:00
9:30 AM,87.8,77.0,70,29.83,6.2,SSW,9.2,-,N/A,,Mostly Cloudy,200,2013-03-18 02:30:00
10:00 AM,89.6,77.0,66,29.83,6.2,SSW,6.9,-,N/A,,Mostly Cloudy,210,2013-03-18 03:00:00
10:30 AM,91.4,75.2,59,29.83,6.2,SW,5.8,-,N/A,,Mostly Cloudy,220,2013-03-18 03:30:00
11:00 AM,93.2,75.2,56,29.83,6.2,SSW,8.1,-,N/A,,Mostly Cloudy,210,2013-03-18 04:00:00
11:30 AM,93.2,75.2,56,29.83,6.2,SW,5.8,-,N/A,,Mostly Cloudy,220,2013-03-18 04:30:00
12:00 PM,93.2,75.2,56,29.80,6.2,WSW,9.2,-,N/A,,Mostly Cloudy,240,2013-03-18 05:00:00
12:30 PM,93.2,75.2,56,29.80,6.2,SW,9.2,-,N/A,,Mostly Cloudy,230,2013-03-18 05:30:00
1:00 PM,94,76,48,29.79,6,WSW,6.9,,,,Partly Cloudy,240,2013-03-18 06:00:00
1:00 PM,95.0,77.0,56,29.77,6.2,WSW,6.9,-,N/A,,Mostly Cloudy,240,2013-03-18 06:00:00
1:30 PM,95.0,77.0,56,29.77,6.2,SSW,12.7,-,N/A,,Mostly Cloudy,210,2013-03-18 06:30:00
2:00 PM,95.0,75.2,53,29.74,6.2,SSW,9.2,-,N/A,,Mostly Cloudy,210,2013-03-18 07:00:00
2:30 PM,95.0,75.2,53,29.71,6.2,SSW,9.2,-,N/A,,Mostly Cloudy,210,2013-03-18 07:30:00
3:00 PM,95.0,75.2,53,29.71,6.2,South,8.1,-,N/A,,Mostly Cloudy,180,2013-03-18 08:00:00
3:30 PM,95.0,75.2,53,29.68,6.2,South,6.9,-,N/A,,Mostly Cloudy,190,2013-03-18 08:30:00
4:00 PM,95.0,75.2,53,29.68,6.2,SSW,11.5,-,N/A,,Mostly Cloudy,210,2013-03-18 09:00:00
4:30 PM,93.2,75.2,56,29.68,6.2,SSW,9.2,-,N/A,,Mostly Cloudy,210,2013-03-18 09:30:00
5:00 PM,93.2,73.4,52,29.71,6.2,SSW,15.0,-,N/A,,Mostly Cloudy,210,2013-03-18 10:00:00
5:30 PM,91.4,75.2,59,29.71,6.2,South,12.7,-,N/A,,Mostly Cloudy,190,2013-03-18 10:30:00
6:00 PM,89.6,75.2,62,29.71,6.2,South,11.5,-,N/A,,Mostly Cloudy,180,2013-03-18 11:00:00
6:30 PM,87.8,75.2,66,29.71,5.6,SSW,10.4,-,N/A,,Mostly Cloudy,210,2013-03-18 11:30:00
7:00 PM,87,76,64,29.74,6,South,19.6,,,,Mist,190,2013-03-18 12:00:00
7:00 PM,87.8,77.0,70,29.71,5.6,South,19.6,-,N/A,,Mostly Cloudy,190,2013-03-18 12:00:00
7:30 PM,86.0,77.0,74,29.74,6.2,South,13.8,-,N/A,,Mostly Cloudy,190,2013-03-18 12:30:00
8:00 PM,86.0,77.0,74,29.74,6.2,WSW,13.8,-,N/A,,Mostly Cloudy,240,2013-03-18 13:00:00
8:30 PM,86.0,77.0,74,29.77,6.2,SSW,11.5,-,N/A,,Mostly Cloudy,210,2013-03-18 13:30:00
9:00 PM,86.0,77.0,74,29.77,6.2,SSW,9.2,-,N/A,,Mostly Cloudy,210,2013-03-18 14:00:00
9:30 PM,86.0,77.0,74,29.77,6.2,SSW,11.5,-,N/A,,Mostly Cloudy,210,2013-03-18 14:30:00
10:00 PM,86.0,77.0,74,29.80,6.2,SW,9.2,-,N/A,,Mostly Cloudy,220,2013-03-18 15:00:00
10:30 PM,86.0,77.0,74,29.80,6.2,SSW,9.2,-,N/A,,Mostly Cloudy,210,2013-03-18 15:30:00
11:00 PM,86.0,77.0,74,29.80,6.2,SSW,10.4,-,N/A,,Mostly Cloudy,200,2013-03-18 16:00:00
11:30 PM,86.0,77.0,74,29.80,6.2,SW,9.2,-,N/A,,Mostly Cloudy,220,2013-03-18 16:30:00